Time,TemperatureF,DewpointF,PressureIn,WindDirection,WindDirectionDegrees,WindSpeedMPH,WindSpeedGustMPH,Humidity,HourlyPrecipIn,Conditions,Clouds,dailyrainin,SoftwareType,DateUTC
2013-03-03 00:02:00,29.0,22.0,30.09,North,9,0.0,3.0,74,0.00,,,0.00,,2013-03-03 05:02:00,
2013-03-03 00:11:00,29.0,22.0,30.09,North,9,0.0,3.0,74,0.00,,,0.00,,2013-03-03 05:11:00,
2013-03-03 00:22:00,29.0,22.0,30.09,NE,34,1.0,4.0,75,0.00,,,0.00,,2013-03-03 05:22:00,
2013-03-03 00:32:00,29.0,22.0,30.09,NNW,342,0.0,2.0,74,0.00,,,0.00,,2013-03-03 05:32:00,
2013-03-03 00:42:00,29.0,22.0,30.09,NNW,342,0.0,2.0,74,0.00,,,0.00,,2013-03-03 05:42:00,
2013-03-03 00:52:00,29.0,22.0,30.09,NE,34,0.0,3.0,76,0.00,,,0.00,,2013-03-03 05:52:00,
2013-03-03 01:02:00,29.0,23.0,30.09,North,360,0.0,3.0,78,0.00,,,0.00,,2013-03-03 06:02:00,
2013-03-03 01:11:00,29.0,23.0,30.09,North,360,0.0,3.0,78,0.00,,,0.00,,2013-03-03 06:11:00,
2013-03-03 01:21:00,28.0,22.0,30.09,North,5,0.0,4.0,78,0.00,,,0.00,,2013-03-03 06:21:00,
2013-03-03 01:32:00,28.0,22.0,30.09,NNW,345,0.0,3.0,77,0.00,,,0.00,,2013-03-03 06:32:00,
2013-03-03 01:42:00,28.0,22.0,30.09,NNW,345,0.0,3.0,77,0.00,,,0.00,,2013-03-03 06:42:00,
2013-03-03 01:52:00,28.0,21.0,30.09,North,360,0.0,4.0,75,0.00,,,0.00,,2013-03-03 06:52:00,
2013-03-03 02:01:00,28.0,21.0,30.08,North,350,0.0,3.0,75,0.00,,,0.00,,2013-03-03 07:01:00,
2013-03-03 02:11:00,28.0,21.0,30.08,North,350,0.0,3.0,75,0.00,,,0.00,,2013-03-03 07:11:00,
2013-03-03 02:21:00,28.0,21.0,30.09,North,355,0.0,3.0,75,0.00,,,0.00,,2013-03-03 07:21:00,
2013-03-03 02:31:00,28.0,21.0,30.08,NNW,327,1.0,3.0,74,0.00,,,0.00,,2013-03-03 07:31:00,
2013-03-03 02:42:00,28.0,21.0,30.08,NNW,327,1.0,3.0,74,0.00,,,0.00,,2013-03-03 07:42:00,
2013-03-03 02:51:00,28.0,21.0,30.08,WNW,294,0.0,2.0,74,0.00,,,0.00,,2013-03-03 07:51:00,
2013-03-03 03:01:00,28.0,21.0,30.08,North,5,0.0,2.0,74,0.00,,,0.00,,2013-03-03 08:01:00,
2013-03-03 03:11:00,28.0,21.0,30.08,North,5,0.0,2.0,74,0.00,,,0.00,,2013-03-03 08:11:00,
2013-03-03 03:21:00,27.0,20.0,30.08,North,5,0.0,3.0,73,0.00,,,0.00,,2013-03-03 08:21:00,
2013-03-03 03:31:00,27.0,20.0,30.07,NNW,348,0.0,4.0,74,0.00,,,0.00,,2013-03-03 08:31:00,
2013-03-03 03:41:00,27.0,20.0,30.07,NNW,348,0.0,4.0,74,0.00,,,0.00,,2013-03-03 08:41:00,
2013-03-03 03:53:00,27.0,20.0,30.07,North,11,0.0,3.0,75,0.00,,,0.00,,2013-03-03 08:53:00,
2013-03-03 04:01:00,27.0,20.0,30.07,North,360,0.0,2.0,75,0.00,,,0.00,,2013-03-03 09:01:00,
2013-03-03 04:11:00,27.0,20.0,30.07,North,360,0.0,2.0,75,0.00,,,0.00,,2013-03-03 09:11:00,
2013-03-03 04:21:00,27.0,20.0,30.07,NNE,18,1.0,4.0,75,0.00,,,0.00,,2013-03-03 09:21:00,
2013-03-03 04:32:00,26.0,19.0,30.07,NNW,336,0.0,3.0,76,0.00,,,0.00,,2013-03-03 09:32:00,
2013-03-03 04:41:00,26.0,19.0,30.07,NNW,336,0.0,3.0,76,0.00,,,0.00,,2013-03-03 09:41:00,
2013-03-03 04:51:00,26.0,19.0,30.06,North,351,2.0,6.0,76,0.00,,,0.00,,2013-03-03 09:51:00,
2013-03-03 05:01:00,26.0,19.0,30.07,NNW,342,0.0,4.0,76,0.00,,,0.00,,2013-03-03 10:01:00,
2013-03-03 05:11:00,26.0,19.0,30.07,NNW,342,0.0,4.0,76,0.00,,,0.00,,2013-03-03 10:11:00,
2013-03-03 05:21:00,26.0,20.0,30.07,NNW,333,0.0,3.0,77,0.00,,,0.00,,2013-03-03 10:21:00,
2013-03-03 05:32:00,26.0,19.0,30.07,NNW,327,1.0,4.0,76,0.00,,,0.00,,2013-03-03 10:32:00,
2013-03-03 05:42:00,26.0,19.0,30.07,NNW,327,1.0,4.0,76,0.00,,,0.00,,2013-03-03 10:42:00,
2013-03-03 05:52:00,26.0,19.0,30.06,North,355,1.0,7.0,74,0.00,,,0.00,,2013-03-03 10:52:00,
2013-03-03 06:01:00,25.0,19.0,30.07,NNW,341,1.0,4.0,76,0.00,,,0.00,,2013-03-03 11:01:00,
2013-03-03 06:11:00,25.0,19.0,30.07,NNW,341,1.0,4.0,76,0.00,,,0.00,,2013-03-03 11:11:00,
2013-03-03 06:21:00,25.0,19.0,30.07,NNW,335,0.0,3.0,76,0.00,,,0.00,,2013-03-03 11:21:00,
2013-03-03 06:32:00,24.0,18.0,30.07,North,355,0.0,2.0,78,0.00,,,0.00,,2013-03-03 11:32:00,
2013-03-03 06:42:00,24.0,18.0,30.07,North,355,0.0,2.0,78,0.00,,,0.00,,2013-03-03 11:42:00,
2013-03-03 06:52:00,24.0,18.0,30.08,North,5,0.0,2.0,77,0.00,,,0.00,,2013-03-03 11:52:00,
2013-03-03 07:01:00,24.0,18.0,30.08,North,360,0.0,2.0,79,0.00,,,0.00,,2013-03-03 12:01:00,
2013-03-03 07:11:00,24.0,18.0,30.08,North,360,0.0,2.0,79,0.00,,,0.00,,2013-03-03 12:11:00,
2013-03-03 07:21:00,23.0,17.0,30.08,North,360,0.0,1.0,79,0.00,,,0.00,,2013-03-03 12:21:00,
2013-03-03 07:32:00,23.0,18.0,30.09,North,360,0.0,0.0,81,0.00,,,0.00,,2013-03-03 12:32:00,
2013-03-03 07:42:00,23.0,18.0,30.09,North,360,0.0,0.0,81,0.00,,,0.00,,2013-03-03 12:42:00,
2013-03-03 07:52:00,23.0,18.0,30.09,North,5,0.0,2.0,80,0.00,,,0.00,,2013-03-03 12:52:00,
2013-03-03 08:01:00,24.0,18.0,30.09,NNE,15,0.0,2.0,79,0.00,,,0.00,,2013-03-03 13:01:00,
2013-03-03 08:11:00,24.0,18.0,30.09,NNE,15,0.0,2.0,79,0.00,,,0.00,,2013-03-03 13:11:00,
2013-03-03 08:22:00,25.0,19.0,30.10,North,9,0.0,2.0,77,0.00,,,0.00,,2013-03-03 13:22:00,
2013-03-03 08:32:00,25.0,19.0,30.10,NNE,26,1.0,2.0,76,0.00,,,0.00,,2013-03-03 13:32:00,
2013-03-03 08:42:00,25.0,19.0,30.10,NNE,26,1.0,2.0,76,0.00,,,0.00,,2013-03-03 13:42:00,
2013-03-03 08:52:00,25.0,18.0,30.10,North,9,0.0,3.0,75,0.00,,,0.00,,2013-03-03 13:52:00,
2013-03-03 09:02:00,26.0,19.0,30.10,North,11,0.0,2.0,74,0.00,,,0.00,,2013-03-03 14:02:00,
2013-03-03 09:11:00,26.0,19.0,30.10,North,11,0.0,2.0,74,0.00,,,0.00,,2013-03-03 14:11:00,
2013-03-03 09:21:00,26.0,19.0,30.10,North,355,0.0,3.0,74,0.00,,,0.00,,2013-03-03 14:21:00,
2013-03-03 09:32:00,26.0,19.0,30.10,North,355,0.0,2.0,74,0.00,,,0.00,,2013-03-03 14:32:00,
2013-03-03 09:42:00,26.0,19.0,30.10,North,355,0.0,2.0,74,0.00,,,0.00,,2013-03-03 14:42:00,
2013-03-03 09:52:00,27.0,20.0,30.10,NNE,23,0.0,3.0,73,0.00,,,0.00,,2013-03-03 14:52:00,
2013-03-03 10:01:00,27.0,20.0,30.10,NW,321,0.0,3.0,73,0.00,,,0.00,,2013-03-03 15:01:00,
2013-03-03 10:11:00,27.0,20.0,30.10,NW,321,0.0,3.0,73,0.00,,,0.00,,2013-03-03 15:11:00,
2013-03-03 10:22:00,27.0,20.0,30.10,North,10,0.0,4.0,74,0.00,,,0.00,,2013-03-03 15:22:00,
2013-03-03 10:32:00,28.0,20.0,30.10,NNE,15,0.0,4.0,73,0.00,,,0.00,,2013-03-03 15:32:00,
2013-03-03 10:42:00,28.0,20.0,30.10,NNE,15,0.0,4.0,73,0.00,,,0.00,,2013-03-03 15:42:00,
2013-03-03 10:52:00,30.0,22.0,30.10,NNW,327,0.0,3.0,72,0.00,,,0.00,,2013-03-03 15:52:00,
2013-03-03 11:01:00,31.0,22.0,30.10,NNW,338,0.0,4.0,69,0.00,,,0.00,,2013-03-03 16:01:00,
2013-03-03 11:12:00,31.0,22.0,30.10,NNW,338,0.0,4.0,69,0.00,,,0.00,,2013-03-03 16:12:00,
2013-03-03 11:21:00,32.0,23.0,30.10,NNW,337,0.0,3.0,68,0.00,,,0.00,,2013-03-03 16:21:00,
2013-03-03 11:32:00,32.0,23.0,30.10,North,9,0.0,2.0,69,0.00,,,0.00,,2013-03-03 16:32:00,
2013-03-03 11:42:00,32.0,23.0,30.10,North,9,0.0,2.0,69,0.00,,,0.00,,2013-03-03 16:42:00,
2013-03-03 11:52:00,32.0,22.0,30.09,NNE,26,1.0,3.0,67,0.00,,,0.00,,2013-03-03 16:52:00,
2013-03-03 12:01:00,32.0,23.0,30.09,NNE,14,0.0,3.0,69,0.00,,,0.00,,2013-03-03 17:01:00,
2013-03-03 12:11:00,32.0,22.0,30.09,NE,35,1.0,4.0,66,0.00,,,0.00,,2013-03-03 17:11:00,
2013-03-03 12:22:00,32.0,22.0,30.09,NE,35,1.0,4.0,66,0.00,,,0.00,,2013-03-03 17:22:00,
2013-03-03 12:32:00,32.0,22.0,30.08,North,355,0.0,4.0,67,0.00,,,0.00,,2013-03-03 17:32:00,
2013-03-03 12:42:00,32.0,22.0,30.08,North,355,0.0,4.0,67,0.00,,,0.00,,2013-03-03 17:42:00,
2013-03-03 12:52:00,33.0,23.0,30.07,NNE,32,1.0,6.0,66,0.00,,,0.00,,2013-03-03 17:52:00,
2013-03-03 13:01:00,35.0,24.0,30.07,NNE,24,1.0,6.0,63,0.00,,,0.00,,2013-03-03 18:01:00,
2013-03-03 13:11:00,35.0,24.0,30.07,NNE,24,1.0,6.0,63,0.00,,,0.00,,2013-03-03 18:11:00,
2013-03-03 13:21:00,35.0,23.0,30.07,North,360,2.0,5.0,61,0.00,,,0.00,,2013-03-03 18:21:00,
2013-03-03 13:32:00,34.0,23.0,30.06,NE,37,1.0,4.0,64,0.00,,,0.00,,2013-03-03 18:32:00,
2013-03-03 13:42:00,34.0,23.0,30.06,NE,37,1.0,4.0,64,0.00,,,0.00,,2013-03-03 18:42:00,
2013-03-03 13:52:00,33.0,23.0,30.06,NNW,347,2.0,4.0,65,0.00,,,0.00,,2013-03-03 18:52:00,
2013-03-03 14:02:00,33.0,23.0,30.06,NNE,27,1.0,5.0,66,0.00,,,0.00,,2013-03-03 19:02:00,
2013-03-03 14:11:00,33.0,23.0,30.06,NNE,27,1.0,5.0,66,0.00,,,0.00,,2013-03-03 19:11:00,
2013-03-03 14:22:00,32.0,22.0,30.05,North,355,2.0,8.0,67,0.00,,,0.00,,2013-03-03 19:22:00,
2013-03-03 14:32:00,32.0,23.0,30.05,North,11,2.0,8.0,68,0.00,,,0.00,,2013-03-03 19:32:00,
2013-03-03 14:42:00,32.0,23.0,30.05,North,11,2.0,8.0,68,0.00,,,0.00,,2013-03-03 19:42:00,
2013-03-03 14:52:00,32.0,23.0,30.05,NE,43,2.0,7.0,68,0.00,,,0.00,,2013-03-03 19:52:00,
2013-03-03 15:01:00,32.0,23.0,30.05,NW,324,2.0,5.0,69,0.00,,,0.00,,2013-03-03 20:01:00,
2013-03-03 15:11:00,32.0,23.0,30.05,NW,324,2.0,5.0,69,0.00,,,0.00,,2013-03-03 20:11:00,
2013-03-03 15:21:00,33.0,23.0,30.05,NNW,340,1.0,5.0,66,0.00,,,0.00,,2013-03-03 20:21:00,
2013-03-03 15:32:00,33.0,23.0,30.05,NNW,340,1.0,5.0,66,0.00,,,0.00,,2013-03-03 20:32:00,
2013-03-03 15:42:00,33.0,23.0,30.05,NNW,340,1.0,5.0,66,0.00,,,0.00,,2013-03-03 20:42:00,
2013-03-03 15:52:00,32.0,22.0,30.05,ENE,74,1.0,5.0,65,0.00,,,0.00,,2013-03-03 20:52:00,
2013-03-03 16:02:00,32.0,22.0,30.05,NNW,342,1.0,5.0,66,0.00,,,0.00,,2013-03-03 21:02:00,
2013-03-03 16:11:00,32.0,22.0,30.05,NNW,342,1.0,5.0,66,0.00,,,0.00,,2013-03-03 21:11:00,
2013-03-03 16:22:00,32.0,22.0,30.05,NNW,334,1.0,8.0,67,0.00,,,0.00,,2013-03-03 21:22:00,
2013-03-03 16:32:00,32.0,23.0,30.05,NW,308,2.0,6.0,68,0.00,,,0.00,,2013-03-03 21:32:00,
2013-03-03 16:42:00,32.0,23.0,30.05,NW,308,2.0,6.0,68,0.00,,,0.00,,2013-03-03 21:42:00,
2013-03-03 16:52:00,33.0,23.0,30.05,North,360,1.0,8.0,67,0.00,,,0.00,,2013-03-03 21:52:00,
2013-03-03 17:01:00,32.0,22.0,30.05,NNE,28,0.0,5.0,66,0.00,,,0.00,,2013-03-03 22:01:00,
2013-03-03 17:11:00,32.0,22.0,30.05,NNE,28,0.0,5.0,66,0.00,,,0.00,,2013-03-03 22:11:00,
2013-03-03 17:22:00,33.0,22.0,30.05,NNW,334,1.0,7.0,63,0.00,,,0.00,,2013-03-03 22:22:00,
2013-03-03 17:32:00,33.0,21.0,30.05,WNW,299,2.0,6.0,60,0.00,,,0.00,,2013-03-03 22:32:00,
2013-03-03 17:42:00,33.0,21.0,30.05,WNW,299,2.0,6.0,60,0.00,,,0.00,,2013-03-03 22:42:00,
2013-03-03 17:52:00,32.0,21.0,30.06,NE,46,1.0,3.0,64,0.00,,,0.00,,2013-03-03 22:52:00,
2013-03-03 18:01:00,30.0,20.0,30.06,NE,52,2.0,6.0,65,0.00,,,0.00,,2013-03-03 23:01:00,
2013-03-03 18:11:00,30.0,20.0,30.06,NE,52,2.0,6.0,65,0.00,,,0.00,,2013-03-03 23:11:00,
2013-03-03 18:21:00,30.0,20.0,30.06,NNW,342,0.0,5.0,66,0.00,,,0.00,,2013-03-03 23:21:00,
2013-03-03 18:32:00,29.0,19.0,30.07,NNE,12,1.0,4.0,66,0.00,,,0.00,,2013-03-03 23:32:00,
2013-03-03 18:42:00,29.0,19.0,30.07,NNE,12,1.0,4.0,66,0.00,,,0.00,,2013-03-03 23:42:00,
2013-03-03 18:52:00,28.0,19.0,30.07,NE,40,1.0,5.0,68,0.00,,,0.00,,2013-03-03 23:52:00,
2013-03-03 19:01:00,28.0,20.0,30.07,North,11,0.0,3.0,70,0.00,,,0.00,,2013-03-04 00:01:00,
2013-03-03 19:11:00,28.0,20.0,30.07,North,11,0.0,3.0,70,0.00,,,0.00,,2013-03-04 00:11:00,
2013-03-03 19:21:00,28.0,19.0,30.07,NE,44,0.0,3.0,69,0.00,,,0.00,,2013-03-04 00:21:00,
2013-03-03 19:32:00,27.0,19.0,30.08,NNE,19,0.0,3.0,71,0.00,,,0.00,,2013-03-04 00:32:00,
2013-03-03 19:42:00,27.0,19.0,30.08,NNE,19,0.0,3.0,71,0.00,,,0.00,,2013-03-04 00:42:00,
2013-03-03 19:52:00,27.0,19.0,30.08,NNE,19,0.0,2.0,71,0.00,,,0.00,,2013-03-04 00:52:00,
2013-03-03 20:01:00,26.0,19.0,30.09,NNE,30,0.0,2.0,73,0.00,,,0.00,,2013-03-04 01:01:00,
2013-03-03 20:11:00,26.0,19.0,30.09,NNE,30,0.0,2.0,73,0.00,,,0.00,,2013-03-04 01:11:00,
2013-03-03 20:21:00,26.0,19.0,30.09,North,10,0.0,1.0,73,0.00,,,0.00,,2013-03-04 01:21:00,
2013-03-03 20:32:00,26.0,19.0,30.09,North,9,0.0,1.0,74,0.00,,,0.00,,2013-03-04 01:32:00,
2013-03-03 20:42:00,26.0,19.0,30.09,North,9,0.0,1.0,74,0.00,,,0.00,,2013-03-04 01:42:00,
2013-03-03 20:51:00,25.0,18.0,30.09,NNE,20,0.0,1.0,75,0.00,,,0.00,,2013-03-04 01:51:00,
2013-03-03 21:01:00,25.0,18.0,30.09,NNE,20,0.0,2.0,74,0.00,,,0.00,,2013-03-04 02:01:00,
2013-03-03 21:11:00,25.0,18.0,30.09,NNE,20,0.0,2.0,74,0.00,,,0.00,,2013-03-04 02:11:00,
2013-03-03 21:22:00,25.0,18.0,30.09,North,5,0.0,1.0,74,0.00,,,0.00,,2013-03-04 02:22:00,
2013-03-03 21:32:00,25.0,18.0,30.09,North,360,0.0,1.0,75,0.00,,,0.00,,2013-03-04 02:32:00,
2013-03-03 21:42:00,25.0,18.0,30.09,North,360,0.0,1.0,75,0.00,,,0.00,,2013-03-04 02:42:00,
2013-03-03 21:52:00,24.0,18.0,30.09,North,5,0.0,1.0,76,0.00,,,0.00,,2013-03-04 02:52:00,
2013-03-03 22:02:00,24.0,18.0,30.09,NNE,19,0.0,1.0,77,0.00,,,0.00,,2013-03-04 03:02:00,
2013-03-03 22:11:00,24.0,18.0,30.09,NNE,19,0.0,1.0,77,0.00,,,0.00,,2013-03-04 03:11:00,
2013-03-03 22:21:00,23.0,17.0,30.09,NNE,19,0.0,1.0,78,0.00,,,0.00,,2013-03-04 03:21:00,
2013-03-03 22:32:00,23.0,17.0,30.09,NNE,19,0.0,0.0,78,0.00,,,0.00,,2013-03-04 03:32:00,
2013-03-03 22:42:00,22.0,17.0,30.09,NNE,19,0.0,0.0,80,0.00,,,0.00,,2013-03-04 03:42:00,
2013-03-03 22:52:00,22.0,17.0,30.09,NNE,19,0.0,0.0,80,0.00,,,0.00,,2013-03-04 03:52:00,
2013-03-03 23:01:00,22.0,17.0,30.09,NNE,19,0.0,0.0,81,0.00,,,0.00,,2013-03-04 04:01:00,
2013-03-03 23:11:00,22.0,17.0,30.09,NNE,19,0.0,0.0,81,0.00,,,0.00,,2013-03-04 04:11:00,
2013-03-03 23:22:00,22.0,17.0,30.09,NNE,19,0.0,0.0,81,0.00,,,0.00,,2013-03-04 04:22:00,
2013-03-03 23:32:00,21.0,16.0,30.10,NNE,19,0.0,0.0,82,0.00,,,0.00,,2013-03-04 04:32:00,
2013-03-03 23:42:00,21.0,16.0,30.10,NNE,19,0.0,0.0,82,0.00,,,0.00,,2013-03-04 04:42:00,
2013-03-03 23:51:00,20.0,16.0,30.10,NNE,19,0.0,0.0,84,0.00,,,0.00,,2013-03-04 04:51:00,